When you browse on this site, cookies collect data to enhance your experience and personalize the content and advertising you see.
Visit our Privacy Policy to learn more. By continuing to use the site, you agree to this use of cookies and data.
  • In Slovakia
  • List of Countries
  • For 7 days
  • Water Temperature
  • Satellite Maps
  • Weather Map
  • Weather Widgets
  • user-avatar
    Login

    Hourly Weather Aglobi

    Today, 26 April, Friday

    Time Temperature Precipitation Wind Pressure Humidity
    00:00 +13°C° 0 mm 3 mps 768 mmHg 45%
    01:00 +13°C° 0 mm 3 mps 768 mmHg 44%
    02:00 +12°C° 0 mm 3 mps 768 mmHg 43%
    03:00 +13°C° 0 mm 4 mps 767 mmHg 42%
    04:00 +13°C° 0 mm 3 mps 767 mmHg 44%
    05:00 +13°C° 0 mm 3 mps 767 mmHg 45%
    06:00 +13°C° 0 mm 3 mps 767 mmHg 46%
    07:00 +16°C° 0 mm 2 mps 767 mmHg 43%
    08:00 +19°C° 0 mm 1 mps 767 mmHg 41%
    09:00 +22°C° 0 mm 1 mps 766 mmHg 38%
    10:00 +21°C° 0 mm 2 mps 766 mmHg 38%
    11:00 +22°C° 0 mm 3 mps 766 mmHg 38%
    12:00 +22°C° 0 mm 4 mps 766 mmHg 38%
    13:00 +22°C° 0 mm 4 mps 766 mmHg 39%
    14:00 +22°C° 0 mm 4 mps 765 mmHg 40%
    15:00 +21°C° 0 mm 5 mps 765 mmHg 41%
    16:00 +20°C° 0 mm 4 mps 765 mmHg 46%
    17:00 +19°C° 0 mm 4 mps 765 mmHg 50%
    18:00 +18°C° 0 mm 3 mps 765 mmHg 55%
    19:00 +17°C° 0 mm 3 mps 765 mmHg 55%
    20:00 +14°C° 0 mm 3 mps 765 mmHg 56%
    21:00 +14°C° 0 mm 2 mps 765 mmHg 57%
    22:00 +14°C° 0 mm 2 mps 765 mmHg 55%
    23:00 +14°C° 0 mm 2 mps 765 mmHg 53%

    Tomorrow, 27 April, Saturday

    Time Temperature Precipitation Wind Pressure Humidity
    00:00 +13°C° 0 mm 2 mps 765 mmHg 51%
    01:00 +13°C° 0 mm 2 mps 765 mmHg 49%
    02:00 +13°C° 0 mm 2 mps 765 mmHg 48%
    03:00 +13°C° 0 mm 2 mps 764 mmHg 46%
    04:00 +13°C° 0 mm 2 mps 764 mmHg 47%
    05:00 +14°C° 0 mm 2 mps 764 mmHg 47%
    06:00 +14°C° 0 mm 2 mps 764 mmHg 48%
    07:00 +16°C° 0 mm 2 mps 764 mmHg 42%
    08:00 +18°C° 0 mm 2 mps 764 mmHg 35%
    09:00 +21°C° 0 mm 2 mps 764 mmHg 29%
    10:00 +21°C° 0 mm 3 mps 763 mmHg 30%
    11:00 +22°C° 0 mm 4 mps 763 mmHg 31%
    12:00 +23°C° 0 mm 5 mps 763 mmHg 32%
    13:00 +23°C° 0 mm 5 mps 762 mmHg 33%
    14:00 +23°C° 0 mm 5 mps 762 mmHg 35%
    15:00 +22°C° 0 mm 5 mps 762 mmHg 37%
    16:00 +21°C° 0 mm 4 mps 761 mmHg 44%
    17:00 +20°C° 0 mm 4 mps 761 mmHg 51%
    18:00 +18°C° 0 mm 3 mps 761 mmHg 58%
    19:00 +17°C° 0 mm 3 mps 761 mmHg 59%
    20:00 +16°C° 0 mm 3 mps 762 mmHg 61%
    21:00 +14°C° 0 mm 3 mps 762 mmHg 62%
    22:00 +13°C° 0 mm 3 mps 761 mmHg 61%
    23:00 +13°C° 0 mm 3 mps 761 mmHg 59%

    Day after tomorrow, 28 April, Sunday

    Time Temperature Precipitation Wind Pressure Humidity
    00:00 +13°C° 0 mm 3 mps 761 mmHg 57%
    01:00 +13°C° 0 mm 3 mps 761 mmHg 55%
    02:00 +13°C° 0 mm 3 mps 760 mmHg 53%
    03:00 +12°C° 0 mm 3 mps 760 mmHg 51%
    04:00 +14°C° 0 mm 2 mps 759 mmHg 51%
    05:00 +14°C° 0 mm 2 mps 759 mmHg 50%
    06:00 +15°C° 0 mm 2 mps 759 mmHg 49%
    07:00 +17°C° 0 mm 2 mps 759 mmHg 45%
    08:00 +19°C° 0 mm 2 mps 759 mmHg 42%
    09:00 +21°C° 0 mm 2 mps 759 mmHg 38%
    10:00 +21°C° 0 mm 2 mps 758 mmHg 39%
    11:00 +22°C° 0 mm 3 mps 758 mmHg 40%
    12:00 +24°C° 0 mm 3 mps 758 mmHg 41%
    13:00 +22°C° 0 mm 3 mps 757 mmHg 43%
    14:00 +22°C° 0 mm 3 mps 757 mmHg 45%
    15:00 +22°C° 0 mm 3 mps 757 mmHg 46%
    16:00 +21°C° 0 mm 3 mps 757 mmHg 52%
    17:00 +20°C° 0 mm 2 mps 757 mmHg 57%
    18:00 +19°C° 0 mm 2 mps 757 mmHg 62%
    19:00 +18°C° 0 mm 2 mps 757 mmHg 62%
    20:00 +17°C° 0 mm 2 mps 758 mmHg 62%
    21:00 +17°C° 0 mm 2 mps 758 mmHg 62%
    22:00 +17°C° 0 mm 2 mps 758 mmHg 60%
    23:00 +17°C° 0 mm 2 mps 758 mmHg 57%

    29 April, Monday

    Time Temperature Precipitation Wind Pressure Humidity
    00:00 +18°C° 0 mm 1 mps 758 mmHg 55%
    01:00 +16°C° 0 mm 2 mps 758 mmHg 54%
    02:00 +16°C° 0 mm 2 mps 758 mmHg 52%
    03:00 +15°C° 0 mm 2 mps 757 mmHg 51%
    04:00 +16°C° 0 mm 2 mps 758 mmHg 51%
    05:00 +16°C° 0 mm 2 mps 758 mmHg 50%
    06:00 +17°C° 0 mm 2 mps 758 mmHg 50%
    07:00 +19°C° 0 mm 2 mps 758 mmHg 46%
    08:00 +22°C° 0 mm 1 mps 758 mmHg 41%
    09:00 +24°C° 0 mm 1 mps 758 mmHg 37%
    10:00 +24°C° 0 mm 2 mps 758 mmHg 36%
    11:00 +25°C° 0 mm 2 mps 758 mmHg 36%
    12:00 +26°C° 0 mm 3 mps 758 mmHg 36%
    13:00 +25°C° 0 mm 3 mps 758 mmHg 37%
    14:00 +25°C° 0 mm 4 mps 758 mmHg 39%
    15:00 +25°C° 0 mm 4 mps 757 mmHg 40%
    16:00 +22°C° 0 mm 3 mps 758 mmHg 45%
    17:00 +21°C° 0 mm 3 mps 758 mmHg 51%
    18:00 +20°C° 0 mm 2 mps 758 mmHg 56%
    19:00 +19°C° 0 mm 2 mps 758 mmHg 59%
    20:00 +18°C° 0 mm 2 mps 758 mmHg 62%
    21:00 +17°C° 0 mm 2 mps 759 mmHg 64%
    22:00 +17°C° 0 mm 2 mps 759 mmHg 63%
    23:00 +16°C° 0 mm 1 mps 759 mmHg 61%

    30 April, Tuesday

    Time Temperature Precipitation Wind Pressure Humidity
    00:00 +16°C° 0 mm 1 mps 758 mmHg 60%
    01:00 +16°C° 0 mm 1 mps 758 mmHg 57%
    02:00 +16°C° 0 mm 1 mps 758 mmHg 55%
    03:00 +16°C° 0 mm 1 mps 758 mmHg 52%
    04:00 +18°C° 0 mm 1 mps 758 mmHg 53%
    05:00 +18°C° 0 mm 1 mps 758 mmHg 54%
    06:00 +18°C° 0 mm 1 mps 759 mmHg 55%
    07:00 +19°C° 0 mm 2 mps 759 mmHg 52%
    08:00 +20°C° 0 mm 2 mps 759 mmHg 48%
    09:00 +21°C° 0 mm 3 mps 759 mmHg 45%
    10:00 +21°C° 0 mm 3 mps 759 mmHg 47%
    11:00 +21°C° 0 mm 4 mps 759 mmHg 49%
    12:00 +21°C° 0 mm 4 mps 759 mmHg 51%
    13:00 +21°C° 0 mm 4 mps 759 mmHg 52%
    14:00 +20°C° 0 mm 4 mps 759 mmHg 54%
    15:00 +20°C° 0 mm 3 mps 759 mmHg 55%
    16:00 +19°C° 0 mm 3 mps 759 mmHg 60%
    17:00 +18°C° 0 mm 2 mps 759 mmHg 64%
    18:00 +16°C° 0 mm 1 mps 759 mmHg 69%
    19:00 +16°C° 0 mm 1 mps 759 mmHg 70%
    20:00 +16°C° 0 mm 1 mps 759 mmHg 70%
    21:00 +15°C° 0 mm 1 mps 759 mmHg 71%
    22:00 +15°C° 0 mm 2 mps 759 mmHg 70%
    23:00 +15°C° 0 mm 2 mps 759 mmHg 70%

    1 May, Wednesday

    Time Temperature Precipitation Wind Pressure Humidity
    00:00 +14°C° 0 mm 2 mps 758 mmHg 69%
    01:00 +14°C° 0 mm 2 mps 758 mmHg 67%
    02:00 +14°C° 0 mm 2 mps 758 mmHg 64%
    03:00 +13°C° 0 mm 3 mps 758 mmHg 62%
    04:00 +15°C° 0 mm 2 mps 758 mmHg 61%
    05:00 +15°C° 0 mm 2 mps 757 mmHg 61%
    06:00 +16°C° 0 mm 2 mps 757 mmHg 61%
    07:00 +18°C° 0 mm 2 mps 757 mmHg 57%
    08:00 +19°C° 0 mm 2 mps 757 mmHg 53%
    09:00 +21°C° 0 mm 2 mps 757 mmHg 49%
    10:00 +23°C° 0 mm 2 mps 756 mmHg 49%
    11:00 +22°C° 0 mm 3 mps 756 mmHg 49%
    12:00 +24°C° 0 mm 3 mps 755 mmHg 50%
    13:00 +24°C° 0.3 mm 3 mps 755 mmHg 51%
    14:00 +24°C° 0.3 mm 2 mps 755 mmHg 53%
    15:00 +24°C° 0.3 mm 2 mps 754 mmHg 54%
    16:00 +23°C° 0.4 mm 2 mps 755 mmHg 61%
    17:00 +21°C° 0.4 mm 3 mps 755 mmHg 67%
    18:00 +20°C° 0.4 mm 3 mps 755 mmHg 73%
    19:00 +19°C° 0 mm 3 mps 755 mmHg 73%
    20:00 +18°C° 0 mm 2 mps 755 mmHg 73%
    21:00 +17°C° 0 mm 2 mps 756 mmHg 73%
    22:00 +17°C° 0 mm 2 mps 755 mmHg 69%
    23:00 +18°C° 0 mm 1 mps 755 mmHg 65%
    Show more